Time,TemperatureF,DewpointF,PressureIn,WindDirection,WindDirectionDegrees,WindSpeedMPH,WindSpeedGustMPH,Humidity,HourlyPrecipIn,Conditions,Clouds,dailyrainin,SoftwareType,DateUTC
2013-03-17 00:00:00,31.7,18.2,29.85,NW,307,0.0,1.0,57,0.00,,,0.00,Wunderground v.1.15,2013-03-17 04:00:00,
2013-03-17 00:02:00,31.6,18.1,29.85,NW,308,0.0,1.0,57,0.00,,,0.00,Wunderground v.1.15,2013-03-17 04:02:00,
2013-03-17 00:04:00,31.5,18.8,29.85,NW,308,0.0,1.0,59,0.00,,,0.00,Wunderground v.1.15,2013-03-17 04:04:00,
2013-03-17 00:07:00,31.3,19.0,29.84,NW,308,0.0,1.0,60,0.00,,,0.00,Wunderground v.1.15,2013-03-17 04:07:00,
2013-03-17 00:12:00,30.9,19.0,29.85,NW,307,0.0,0.0,61,0.00,,,0.00,Wunderground v.1.15,2013-03-17 04:12:00,
2013-03-17 00:19:00,30.4,19.3,29.85,NW,307,0.0,1.0,63,0.00,,,0.00,Wunderground v.1.15,2013-03-17 04:19:00,
2013-03-17 00:24:00,30.0,19.7,29.85,NW,308,1.0,2.0,65,0.00,,,0.00,Wunderground v.1.15,2013-03-17 04:24:00,
2013-03-17 00:29:00,29.4,18.7,29.85,NNW,340,1.0,2.0,64,0.00,,,0.00,Wunderground v.1.15,2013-03-17 04:29:00,
2013-03-17 00:35:00,29.1,17.7,29.85,NNE,15,1.0,2.0,62,0.00,,,0.00,Wunderground v.1.15,2013-03-17 04:35:00,
2013-03-17 00:40:00,29.0,18.0,29.86,NNE,15,1.0,2.0,63,0.00,,,0.00,Wunderground v.1.15,2013-03-17 04:40:00,
2013-03-17 00:46:00,28.8,18.1,29.86,NW,308,1.0,2.0,64,0.00,,,0.00,Wunderground v.1.15,2013-03-17 04:46:00,
2013-03-17 00:52:00,28.6,18.0,29.86,NW,308,1.0,1.0,64,0.00,,,0.00,Wunderground v.1.15,2013-03-17 04:52:00,
2013-03-17 00:59:00,28.5,17.9,29.86,NW,308,1.0,1.0,64,0.00,,,0.00,Wunderground v.1.15,2013-03-17 04:59:00,
2013-03-17 01:04:00,28.4,17.8,29.87,NW,321,1.0,2.0,64,0.00,,,0.00,Wunderground v.1.15,2013-03-17 05:04:00,
2013-03-17 01:10:00,28.3,17.7,29.87,NW,311,1.0,1.0,64,0.00,,,0.00,Wunderground v.1.15,2013-03-17 05:10:00,
2013-03-17 01:15:00,28.2,16.5,29.87,NW,311,1.0,2.0,61,0.00,,,0.00,Wunderground v.1.15,2013-03-17 05:15:00,
2013-03-17 01:20:00,28.2,16.8,29.87,NW,311,1.0,1.0,62,0.00,,,0.00,Wunderground v.1.15,2013-03-17 05:20:00,
2013-03-17 01:26:00,28.1,16.4,29.87,NW,311,1.0,2.0,61,0.00,,,0.00,Wunderground v.1.15,2013-03-17 05:26:00,
2013-03-17 01:31:00,28.0,17.0,29.88,NW,312,1.0,1.0,63,0.00,,,0.00,Wunderground v.1.15,2013-03-17 05:31:00,
2013-03-17 01:37:00,27.8,17.2,29.88,NW,312,1.0,2.0,64,0.00,,,0.00,Wunderground v.1.15,2013-03-17 05:37:00,
2013-03-17 01:44:00,27.5,18.0,29.88,NW,312,1.0,2.0,67,0.00,,,0.00,Wunderground v.1.15,2013-03-17 05:44:00,
2013-03-17 01:50:00,27.2,18.0,29.88,NW,311,1.0,1.0,68,0.00,,,0.00,Wunderground v.1.15,2013-03-17 05:50:00,
2013-03-17 01:56:00,27.0,17.8,29.88,NW,312,1.0,1.0,68,0.00,,,0.00,Wunderground v.1.15,2013-03-17 05:56:00,
2013-03-17 02:01:00,26.9,18.1,29.88,NW,312,1.0,1.0,69,0.00,,,0.00,Wunderground v.1.15,2013-03-17 06:01:00,
2013-03-17 02:07:00,26.7,18.2,29.88,NW,312,1.0,2.0,70,0.00,,,0.00,Wunderground v.1.15,2013-03-17 06:07:00,
2013-03-17 02:14:00,26.5,18.0,29.88,NW,311,1.0,1.0,70,0.00,,,0.00,Wunderground v.1.15,2013-03-17 06:14:00,
2013-03-17 02:20:00,26.4,17.9,29.87,NW,311,0.0,1.0,70,0.00,,,0.00,Wunderground v.1.15,2013-03-17 06:20:00,
2013-03-17 02:25:00,26.2,17.7,29.87,NW,311,0.0,1.0,70,0.00,,,0.00,Wunderground v.1.15,2013-03-17 06:25:00,
2013-03-17 02:32:00,26.2,17.4,29.87,NW,312,0.0,0.0,69,0.00,,,0.00,Wunderground v.1.15,2013-03-17 06:32:00,
2013-03-17 02:37:00,26.0,17.9,29.87,NW,312,1.0,1.0,71,0.00,,,0.00,Wunderground v.1.15,2013-03-17 06:37:00,
2013-03-17 02:44:00,25.8,18.0,29.87,NW,312,1.0,1.0,72,0.00,,,0.00,Wunderground v.1.15,2013-03-17 06:44:00,
2013-03-17 02:49:00,25.6,18.1,29.87,NW,311,0.0,1.0,73,0.00,,,0.00,Wunderground v.1.15,2013-03-17 06:49:00,
2013-03-17 02:55:00,25.4,17.3,29.88,NW,311,1.0,2.0,71,0.00,,,0.00,Wunderground v.1.15,2013-03-17 06:55:00,
2013-03-17 03:01:00,25.2,17.4,29.87,NW,311,1.0,2.0,72,0.00,,,0.00,Wunderground v.1.15,2013-03-17 07:01:00,
2013-03-17 03:07:00,25.1,17.3,29.87,NW,312,1.0,2.0,72,0.00,,,0.00,Wunderground v.1.15,2013-03-17 07:07:00,
2013-03-17 03:14:00,24.9,17.5,29.88,NW,312,1.0,2.0,73,0.00,,,0.00,Wunderground v.1.15,2013-03-17 07:14:00,
2013-03-17 03:19:00,24.7,16.6,29.87,NW,311,2.0,2.0,71,0.00,,,0.00,Wunderground v.1.15,2013-03-17 07:19:00,
2013-03-17 03:24:00,24.4,16.0,29.87,NW,311,2.0,3.0,70,0.00,,,0.00,Wunderground v.1.15,2013-03-17 07:24:00,
2013-03-17 03:29:00,24.3,16.6,29.88,NW,311,2.0,2.0,72,0.00,,,0.00,Wunderground v.1.15,2013-03-17 07:29:00,
2013-03-17 03:35:00,24.2,16.5,29.88,NW,311,2.0,2.0,72,0.00,,,0.00,Wunderground v.1.15,2013-03-17 07:35:00,
2013-03-17 03:40:00,24.1,16.7,29.88,NW,311,2.0,2.0,73,0.00,,,0.00,Wunderground v.1.15,2013-03-17 07:40:00,
2013-03-17 03:45:00,24.0,16.9,29.88,NW,311,1.0,2.0,74,0.00,,,0.00,Wunderground v.1.15,2013-03-17 07:45:00,
2013-03-17 03:51:00,23.9,16.8,29.88,WNW,301,1.0,2.0,74,0.00,,,0.00,Wunderground v.1.15,2013-03-17 07:51:00,
2013-03-17 03:56:00,23.8,17.0,29.89,WNW,300,1.0,2.0,75,0.00,,,0.00,Wunderground v.1.15,2013-03-17 07:56:00,
2013-03-17 04:02:00,23.7,16.9,29.90,WNW,301,2.0,2.0,75,0.00,,,0.00,Wunderground v.1.15,2013-03-17 08:02:00,
2013-03-17 04:09:00,23.5,16.4,29.90,WNW,300,2.0,2.0,74,0.00,,,0.00,Wunderground v.1.15,2013-03-17 08:09:00,
2013-03-17 04:14:00,23.4,16.3,29.89,WNW,300,1.0,2.0,74,0.00,,,0.00,Wunderground v.1.15,2013-03-17 08:14:00,
2013-03-17 04:19:00,23.3,16.5,29.90,WNW,300,1.0,1.0,75,0.00,,,0.00,Wunderground v.1.15,2013-03-17 08:19:00,
2013-03-17 04:25:00,23.2,16.4,29.90,WNW,300,1.0,1.0,75,0.00,,,0.00,Wunderground v.1.15,2013-03-17 08:25:00,
2013-03-17 04:31:00,23.1,16.7,29.90,WNW,300,1.0,2.0,76,0.00,,,0.00,Wunderground v.1.15,2013-03-17 08:31:00,
2013-03-17 04:39:00,22.9,16.8,29.90,WNW,300,1.0,2.0,77,0.00,,,0.00,Wunderground v.1.15,2013-03-17 08:39:00,
2013-03-17 04:44:00,22.8,16.7,29.90,WNW,300,1.0,2.0,77,0.00,,,0.00,Wunderground v.1.15,2013-03-17 08:44:00,
2013-03-17 04:49:00,22.6,16.2,29.90,WNW,300,2.0,2.0,76,0.00,,,0.00,Wunderground v.1.15,2013-03-17 08:49:00,
2013-03-17 04:55:00,22.4,16.0,29.90,WNW,300,1.0,2.0,76,0.00,,,0.00,Wunderground v.1.15,2013-03-17 08:55:00,
2013-03-17 05:01:00,22.2,15.5,29.90,WNW,300,1.0,2.0,75,0.00,,,0.00,Wunderground v.1.15,2013-03-17 09:01:00,
2013-03-17 05:07:00,22.2,15.8,29.91,WNW,300,1.0,2.0,76,0.00,,,0.00,Wunderground v.1.15,2013-03-17 09:07:00,
2013-03-17 05:15:00,22.2,16.4,29.91,WNW,300,1.0,1.0,78,0.00,,,0.00,Wunderground v.1.15,2013-03-17 09:15:00,
2013-03-17 05:22:00,22.2,16.7,29.91,WNW,300,1.0,2.0,79,0.00,,,0.00,Wunderground v.1.15,2013-03-17 09:22:00,
2013-03-17 05:27:00,22.1,16.9,29.91,WNW,300,1.0,2.0,80,0.00,,,0.00,Wunderground v.1.15,2013-03-17 09:27:00,
2013-03-17 05:34:00,22.0,16.8,29.91,WNW,300,1.0,1.0,80,0.00,,,0.00,Wunderground v.1.15,2013-03-17 09:34:00,
2013-03-17 05:40:00,21.8,16.0,29.91,WNW,300,1.0,1.0,78,0.00,,,0.00,Wunderground v.1.15,2013-03-17 09:40:00,
2013-03-17 05:45:00,21.7,15.9,29.92,WNW,300,1.0,1.0,78,0.00,,,0.00,Wunderground v.1.15,2013-03-17 09:45:00,
2013-03-17 05:50:00,21.6,15.5,29.91,WNW,300,1.0,2.0,77,0.00,,,0.00,Wunderground v.1.15,2013-03-17 09:50:00,
2013-03-17 05:57:00,21.4,15.3,29.92,WNW,300,2.0,2.0,77,0.00,,,0.00,Wunderground v.1.15,2013-03-17 09:57:00,
2013-03-17 06:04:00,21.4,15.3,29.92,WNW,300,2.0,2.0,77,0.00,,,0.00,Wunderground v.1.15,2013-03-17 10:04:00,
2013-03-17 06:10:00,21.3,15.5,29.92,WNW,300,2.0,2.0,78,0.00,,,0.00,Wunderground v.1.15,2013-03-17 10:10:00,
2013-03-17 06:15:00,21.3,15.5,29.92,WNW,300,2.0,2.0,78,0.00,,,0.00,Wunderground v.1.15,2013-03-17 10:15:00,
2013-03-17 06:20:00,21.2,15.1,29.92,WNW,300,2.0,2.0,77,0.00,,,0.00,Wunderground v.1.15,2013-03-17 10:20:00,
2013-03-17 06:25:00,21.1,15.0,29.92,WNW,300,1.0,2.0,77,0.00,,,0.00,Wunderground v.1.15,2013-03-17 10:25:00,
2013-03-17 06:31:00,20.9,14.8,29.92,NW,305,2.0,3.0,77,0.00,,,0.00,Wunderground v.1.15,2013-03-17 10:31:00,
2013-03-17 06:36:00,20.9,15.4,29.93,WNW,292,2.0,3.0,79,0.00,,,0.00,Wunderground v.1.15,2013-03-17 10:36:00,
2013-03-17 06:42:00,21.1,16.2,29.94,West,281,3.0,3.0,81,0.00,,,0.00,Wunderground v.1.15,2013-03-17 10:42:00,
2013-03-17 06:49:00,21.4,16.5,29.94,NW,306,3.0,3.0,81,0.00,,,0.00,Wunderground v.1.15,2013-03-17 10:49:00,
2013-03-17 06:55:00,21.7,16.2,29.95,NNW,331,2.0,4.0,79,0.00,,,0.00,Wunderground v.1.15,2013-03-17 10:55:00,
2013-03-17 07:00:00,22.0,16.2,29.95,NW,309,2.0,2.0,78,0.00,,,0.00,Wunderground v.1.15,2013-03-17 11:00:00,
2013-03-17 07:07:00,22.3,16.2,29.95,WNW,298,2.0,3.0,77,0.00,,,0.00,Wunderground v.1.15,2013-03-17 11:07:00,
2013-03-17 07:14:00,22.3,16.5,29.95,NW,310,2.0,3.0,78,0.00,,,0.00,Wunderground v.1.15,2013-03-17 11:14:00,
2013-03-17 07:19:00,22.3,16.5,29.96,NW,310,2.0,3.0,78,0.00,,,0.00,Wunderground v.1.15,2013-03-17 11:19:00,
2013-03-17 07:25:00,22.3,16.8,29.96,NW,307,2.0,3.0,79,0.00,,,0.00,Wunderground v.1.15,2013-03-17 11:25:00,
2013-03-17 07:30:00,22.2,16.7,29.97,WNW,303,2.0,2.0,79,0.00,,,0.00,Wunderground v.1.15,2013-03-17 11:30:00,
2013-03-17 07:36:00,22.4,16.9,29.98,West,280,2.0,4.0,79,0.00,,,0.00,Wunderground v.1.15,2013-03-17 11:36:00,
2013-03-17 07:41:00,22.8,16.7,29.98,NW,309,2.0,4.0,77,0.00,,,0.00,Wunderground v.1.15,2013-03-17 11:41:00,
2013-03-17 07:46:00,23.3,16.9,29.98,West,281,3.0,5.0,76,0.00,,,0.00,Wunderground v.1.15,2013-03-17 11:46:00,
2013-03-17 07:52:00,23.8,17.0,29.99,West,275,3.0,5.0,75,0.00,,,0.00,Wunderground v.1.15,2013-03-17 11:52:00,
2013-03-17 07:59:00,24.5,17.4,29.99,West,276,3.0,3.0,74,0.00,,,0.00,Wunderground v.1.15,2013-03-17 11:59:00,
2013-03-17 08:04:00,24.9,17.1,29.99,NW,317,3.0,5.0,72,0.00,,,0.00,Wunderground v.1.15,2013-03-17 12:04:00,
2013-03-17 08:10:00,25.4,17.3,30.00,NNW,330,3.0,3.0,71,0.00,,,0.00,Wunderground v.1.15,2013-03-17 12:10:00,
2013-03-17 08:16:00,25.8,17.4,30.00,NNW,331,3.0,7.0,70,0.00,,,0.00,Wunderground v.1.15,2013-03-17 12:16:00,
2013-03-17 08:22:00,26.2,17.4,30.01,NNW,336,4.0,4.0,69,0.00,,,0.00,Wunderground v.1.15,2013-03-17 12:22:00,
2013-03-17 08:27:00,26.4,17.6,30.01,WNW,284,4.0,6.0,69,0.00,,,0.00,Wunderground v.1.15,2013-03-17 12:27:00,
2013-03-17 08:32:00,26.6,17.5,30.01,WNW,288,5.0,10.0,68,0.00,,,0.00,Wunderground v.1.15,2013-03-17 12:32:00,
2013-03-17 08:39:00,26.9,17.4,30.01,NNW,336,6.0,6.0,67,0.00,,,0.00,Wunderground v.1.15,2013-03-17 12:39:00,
2013-03-17 08:44:00,27.0,17.5,30.01,NNW,340,5.0,6.0,67,0.00,,,0.00,Wunderground v.1.15,2013-03-17 12:44:00,
2013-03-17 08:49:00,27.2,17.3,30.01,NW,317,5.0,5.0,66,0.00,,,0.00,Wunderground v.1.15,2013-03-17 12:49:00,
2013-03-17 08:54:00,27.4,17.5,30.01,WNW,303,6.0,10.0,66,0.00,,,0.00,Wunderground v.1.15,2013-03-17 12:54:00,
2013-03-17 08:59:00,27.4,17.2,30.01,WNW,297,7.0,7.0,65,0.00,,,0.00,Wunderground v.1.15,2013-03-17 12:59:00,
2013-03-17 09:04:00,27.6,17.4,30.01,NNW,347,5.0,10.0,65,0.00,,,0.00,Wunderground v.1.15,2013-03-17 13:04:00,
2013-03-17 09:10:00,27.6,17.4,30.01,NNE,26,5.0,6.0,65,0.00,,,0.00,Wunderground v.1.15,2013-03-17 13:10:00,
2013-03-17 09:16:00,27.8,17.6,30.02,NNW,340,5.0,8.0,65,0.00,,,0.00,Wunderground v.1.15,2013-03-17 13:16:00,
2013-03-17 09:22:00,28.3,18.0,30.03,WNW,284,4.0,6.0,65,0.00,,,0.00,Wunderground v.1.15,2013-03-17 13:22:00,
2013-03-17 09:29:00,28.8,17.8,30.02,NNE,25,4.0,7.0,63,0.00,,,0.00,Wunderground v.1.15,2013-03-17 13:29:00,
2013-03-17 09:35:00,28.8,17.8,30.03,WNW,290,4.0,8.0,63,0.00,,,0.00,Wunderground v.1.15,2013-03-17 13:35:00,
2013-03-17 09:41:00,29.4,18.3,30.03,West,269,4.0,4.0,63,0.00,,,0.00,Wunderground v.1.15,2013-03-17 13:41:00,
2013-03-17 09:47:00,29.9,17.3,30.03,NW,312,5.0,11.0,59,0.00,,,0.00,Wunderground v.1.15,2013-03-17 13:47:00,
2013-03-17 09:52:00,30.2,16.8,30.02,NW,320,5.0,8.0,57,0.00,,,0.00,Wunderground v.1.15,2013-03-17 13:52:00,
2013-03-17 09:57:00,30.6,16.3,30.02,ENE,65,5.0,8.0,55,0.00,,,0.00,Wunderground v.1.15,2013-03-17 13:57:00,
2013-03-17 10:04:00,31.0,15.8,30.02,NNE,15,3.0,5.0,53,0.00,,,0.00,Wunderground v.1.15,2013-03-17 14:04:00,
2013-03-17 10:10:00,31.4,15.8,30.02,North,355,4.0,6.0,52,0.00,,,0.00,Wunderground v.1.15,2013-03-17 14:10:00,
2013-03-17 10:15:00,30.7,15.1,30.02,ENE,69,6.0,8.0,52,0.00,,,0.00,Wunderground v.1.15,2013-03-17 14:15:00,
2013-03-17 10:20:00,30.7,15.6,30.02,WNW,303,6.0,6.0,53,0.00,,,0.00,Wunderground v.1.15,2013-03-17 14:20:00,
2013-03-17 10:25:00,30.9,15.8,30.02,West,269,6.0,7.0,53,0.00,,,0.00,Wunderground v.1.15,2013-03-17 14:25:00,
2013-03-17 10:30:00,31.1,15.1,30.02,NW,307,7.0,11.0,51,0.00,,,0.00,Wunderground v.1.15,2013-03-17 14:30:00,
2013-03-17 10:35:00,31.4,15.8,30.02,NW,313,7.0,12.0,52,0.00,,,0.00,Wunderground v.1.15,2013-03-17 14:35:00,
2013-03-17 10:41:00,31.7,15.6,30.02,WNW,284,6.0,9.0,51,0.00,,,0.00,Wunderground v.1.15,2013-03-17 14:41:00,
2013-03-17 10:47:00,32.1,14.6,30.02,WNW,299,7.0,14.0,48,0.00,,,0.00,Wunderground v.1.15,2013-03-17 14:47:00,
2013-03-17 10:52:00,32.4,15.3,30.01,NW,304,7.0,9.0,49,0.00,,,0.00,Wunderground v.1.15,2013-03-17 14:52:00,
2013-03-17 10:57:00,32.5,14.5,30.02,West,273,7.0,10.0,47,0.00,,,0.00,Wunderground v.1.15,2013-03-17 14:57:00,
2013-03-17 11:04:00,32.7,15.1,30.01,NNW,340,6.0,10.0,48,0.00,,,0.00,Wunderground v.1.15,2013-03-17 15:04:00,
2013-03-17 11:10:00,33.1,15.0,30.02,North,349,6.0,6.0,47,0.00,,,0.00,Wunderground v.1.15,2013-03-17 15:10:00,
2013-03-17 11:16:00,33.6,15.5,30.02,NW,304,6.0,13.0,47,0.00,,,0.00,Wunderground v.1.15,2013-03-17 15:16:00,
2013-03-17 11:24:00,33.9,15.8,30.02,NNW,327,8.0,14.0,47,0.00,,,0.00,Wunderground v.1.15,2013-03-17 15:24:00,
2013-03-17 11:30:00,33.8,15.2,30.02,NW,306,8.0,11.0,46,0.00,,,0.00,Wunderground v.1.15,2013-03-17 15:30:00,
2013-03-17 11:35:00,34.4,15.7,30.02,West,271,6.0,11.0,46,0.00,,,0.00,Wunderground v.1.15,2013-03-17 15:35:00,
2013-03-17 11:40:00,35.0,16.3,30.03,NW,310,5.0,8.0,46,0.00,,,0.00,Wunderground v.1.15,2013-03-17 15:40:00,
2013-03-17 11:46:00,34.5,15.3,30.02,WNW,284,7.0,12.0,45,0.00,,,0.00,Wunderground v.1.15,2013-03-17 15:46:00,
2013-03-17 11:52:00,34.4,15.2,30.02,West,273,8.0,8.0,45,0.00,,,0.00,Wunderground v.1.15,2013-03-17 15:52:00,
2013-03-17 11:59:00,34.6,15.4,30.02,NW,313,6.0,6.0,45,0.00,,,0.00,Wunderground v.1.15,2013-03-17 15:59:00,
2013-03-17 12:04:00,35.2,15.4,30.02,North,355,5.0,7.0,44,0.00,,,0.00,Wunderground v.1.15,2013-03-17 16:04:00,
2013-03-17 12:24:00,35.6,15.3,30.02,NW,322,6.0,7.0,43,0.00,,,0.00,Wunderground v.1.15,2013-03-17 16:24:00,
2013-03-17 12:29:00,35.5,15.7,30.02,NW,321,6.0,12.0,44,0.00,,,0.00,Wunderground v.1.15,2013-03-17 16:29:00,
2013-03-17 12:35:00,35.1,15.3,30.02,North,350,7.0,7.0,44,0.00,,,0.00,Wunderground v.1.15,2013-03-17 16:35:00,
2013-03-17 12:40:00,35.5,15.7,30.01,NW,306,6.0,13.0,44,0.00,,,0.00,Wunderground v.1.15,2013-03-17 16:40:00,
2013-03-17 12:46:00,35.0,14.7,30.02,West,265,6.0,11.0,43,0.00,,,0.00,Wunderground v.1.15,2013-03-17 16:46:00,
2013-03-17 12:52:00,35.1,15.3,30.02,North,349,7.0,11.0,44,0.00,,,0.00,Wunderground v.1.15,2013-03-17 16:52:00,
2013-03-17 12:57:00,35.8,15.5,30.01,NNW,345,6.0,7.0,43,0.00,,,0.00,Wunderground v.1.15,2013-03-17 16:57:00,
2013-03-17 13:02:00,35.9,13.9,30.02,NNE,22,5.0,7.0,40,0.00,,,0.00,Wunderground v.1.15,2013-03-17 17:02:00,
2013-03-17 13:09:00,35.8,15.5,30.02,North,355,5.0,5.0,43,0.00,,,0.00,Wunderground v.1.15,2013-03-17 17:09:00,
2013-03-17 13:14:00,36.4,14.9,30.02,ENE,57,5.0,7.0,41,0.00,,,0.00,Wunderground v.1.15,2013-03-17 17:14:00,
2013-03-17 13:20:00,36.2,15.3,30.01,NE,37,5.0,5.0,42,0.00,,,0.00,Wunderground v.1.15,2013-03-17 17:20:00,
2013-03-17 13:25:00,36.0,14.0,30.02,North,5,3.0,5.0,40,0.00,,,0.00,Wunderground v.1.15,2013-03-17 17:25:00,
2013-03-17 13:31:00,35.6,13.6,30.01,NNE,33,4.0,6.0,40,0.00,,,0.00,Wunderground v.1.15,2013-03-17 17:31:00,
2013-03-17 13:36:00,35.4,14.6,30.01,NNW,343,5.0,9.0,42,0.00,,,0.00,Wunderground v.1.15,2013-03-17 17:36:00,
2013-03-17 13:42:00,35.9,13.3,30.01,North,360,6.0,8.0,39,0.00,,,0.00,Wunderground v.1.15,2013-03-17 17:42:00,
2013-03-17 13:49:00,36.1,12.9,30.01,NW,321,6.0,10.0,38,0.00,,,0.00,Wunderground v.1.15,2013-03-17 17:49:00,
2013-03-17 13:54:00,36.3,13.1,30.01,WNW,288,7.0,10.0,38,0.00,,,0.00,Wunderground v.1.15,2013-03-17 17:54:00,
2013-03-17 13:59:00,36.4,12.6,30.01,NNE,24,8.0,8.0,37,0.00,,,0.00,Wunderground v.1.15,2013-03-17 17:59:00,
2013-03-17 14:04:00,36.6,11.5,30.01,WNW,303,7.0,9.0,35,0.00,,,0.00,Wunderground v.1.15,2013-03-17 18:04:00,
2013-03-17 14:10:00,36.4,11.3,30.01,West,277,7.0,10.0,35,0.00,,,0.00,Wunderground v.1.15,2013-03-17 18:10:00,
2013-03-17 14:16:00,36.6,11.5,30.02,NW,307,5.0,10.0,35,0.00,,,0.00,Wunderground v.1.15,2013-03-17 18:16:00,
2013-03-17 14:21:00,36.5,11.4,30.01,NNE,20,4.0,6.0,35,0.00,,,0.00,Wunderground v.1.15,2013-03-17 18:21:00,
2013-03-17 14:26:00,36.6,12.1,30.02,NW,319,5.0,7.0,36,0.00,,,0.00,Wunderground v.1.15,2013-03-17 18:26:00,
2013-03-17 14:31:00,37.4,12.2,30.01,WNW,292,5.0,6.0,35,0.00,,,0.00,Wunderground v.1.15,2013-03-17 18:31:00,
2013-03-17 14:36:00,37.7,10.4,30.02,WNW,284,7.0,14.0,32,0.00,,,0.00,Wunderground v.1.15,2013-03-17 18:36:00,
2013-03-17 14:42:00,36.8,10.3,30.02,NW,317,7.0,11.0,33,0.00,,,0.00,Wunderground v.1.15,2013-03-17 18:42:00,
2013-03-17 14:49:00,36.2,9.8,30.02,WNW,298,8.0,16.0,33,0.00,,,0.00,Wunderground v.1.15,2013-03-17 18:49:00,
2013-03-17 14:54:00,35.9,10.2,30.02,NNW,345,10.0,16.0,34,0.00,,,0.00,Wunderground v.1.15,2013-03-17 18:54:00,
2013-03-17 15:00:00,36.1,12.3,30.03,WNW,298,8.0,10.0,37,0.00,,,0.00,Wunderground v.1.15,2013-03-17 19:00:00,
2013-03-17 15:05:00,36.7,11.6,30.03,North,5,5.0,10.0,35,0.00,,,0.00,Wunderground v.1.15,2013-03-17 19:05:00,
2013-03-17 15:11:00,36.6,12.7,30.03,NE,39,5.0,8.0,37,0.00,,,0.00,Wunderground v.1.15,2013-03-17 19:11:00,
2013-03-17 15:17:00,36.6,11.5,30.03,NW,320,5.0,8.0,35,0.00,,,0.00,Wunderground v.1.15,2013-03-17 19:17:00,
2013-03-17 15:22:00,36.2,10.5,30.03,North,360,6.0,8.0,34,0.00,,,0.00,Wunderground v.1.15,2013-03-17 19:22:00,
2013-03-17 15:27:00,36.1,10.4,30.04,West,273,7.0,8.0,34,0.00,,,0.00,Wunderground v.1.15,2013-03-17 19:27:00,
2013-03-17 15:32:00,36.6,10.8,30.04,WNW,294,7.0,14.0,34,0.00,,,0.00,Wunderground v.1.15,2013-03-17 19:32:00,
2013-03-17 15:39:00,36.4,10.7,30.04,NE,41,6.0,6.0,34,0.00,,,0.00,Wunderground v.1.15,2013-03-17 19:39:00,
2013-03-17 15:45:00,36.2,9.8,30.04,NW,319,5.0,7.0,33,0.00,,,0.00,Wunderground v.1.15,2013-03-17 19:45:00,
2013-03-17 15:51:00,35.9,10.2,30.04,NNE,25,5.0,7.0,34,0.00,,,0.00,Wunderground v.1.15,2013-03-17 19:51:00,
2013-03-17 15:57:00,35.7,10.0,30.04,NNW,332,6.0,9.0,34,0.00,,,0.00,Wunderground v.1.15,2013-03-17 19:57:00,
2013-03-17 16:04:00,35.8,10.1,30.05,North,355,7.0,10.0,34,0.00,,,0.00,Wunderground v.1.15,2013-03-17 20:04:00,
2013-03-17 16:10:00,36.0,10.3,30.04,NNW,330,6.0,8.0,34,0.00,,,0.00,Wunderground v.1.15,2013-03-17 20:10:00,
2013-03-17 16:15:00,36.0,10.3,30.05,West,276,7.0,15.0,34,0.00,,,0.00,Wunderground v.1.15,2013-03-17 20:15:00,
2013-03-17 16:20:00,35.6,8.6,30.05,North,5,7.0,7.0,32,0.00,,,0.00,Wunderground v.1.15,2013-03-17 20:20:00,
2013-03-17 16:26:00,35.5,8.5,30.05,NW,313,6.0,11.0,32,0.00,,,0.00,Wunderground v.1.15,2013-03-17 20:26:00,
2013-03-17 16:31:00,35.5,9.2,30.05,WNW,293,6.0,7.0,33,0.00,,,0.00,Wunderground v.1.15,2013-03-17 20:31:00,
2013-03-17 16:37:00,35.3,8.3,30.06,NW,316,6.0,9.0,32,0.00,,,0.00,Wunderground v.1.15,2013-03-17 20:37:00,
2013-03-17 16:44:00,35.0,8.1,30.06,NE,40,6.0,7.0,32,0.00,,,0.00,Wunderground v.1.15,2013-03-17 20:44:00,
2013-03-17 16:49:00,34.7,7.8,30.06,North,351,5.0,6.0,32,0.00,,,0.00,Wunderground v.1.15,2013-03-17 20:49:00,
2013-03-17 16:55:00,34.8,7.9,30.06,WNW,292,5.0,7.0,32,0.00,,,0.00,Wunderground v.1.15,2013-03-17 20:55:00,
2013-03-17 17:01:00,34.9,8.0,30.06,NW,321,5.0,9.0,32,0.00,,,0.00,Wunderground v.1.15,2013-03-17 21:01:00,
2013-03-17 17:06:00,34.8,8.6,30.07,WNW,290,5.0,9.0,33,0.00,,,0.00,Wunderground v.1.15,2013-03-17 21:06:00,
2013-03-17 17:14:00,34.7,8.5,30.08,NW,321,6.0,8.0,33,0.00,,,0.00,Wunderground v.1.15,2013-03-17 21:14:00,
2013-03-17 17:19:00,34.6,7.7,30.07,NNW,342,5.0,8.0,32,0.00,,,0.00,Wunderground v.1.15,2013-03-17 21:19:00,
2013-03-17 17:24:00,34.4,8.9,30.08,NE,53,5.0,10.0,34,0.00,,,0.00,Wunderground v.1.15,2013-03-17 21:24:00,
2013-03-17 17:30:00,34.4,8.2,30.08,North,5,5.0,5.0,33,0.00,,,0.00,Wunderground v.1.15,2013-03-17 21:30:00,
2013-03-17 17:35:00,34.3,8.1,30.09,NNE,28,5.0,9.0,33,0.00,,,0.00,Wunderground v.1.15,2013-03-17 21:35:00,
2013-03-17 17:40:00,34.4,8.2,30.09,NW,306,4.0,9.0,33,0.00,,,0.00,Wunderground v.1.15,2013-03-17 21:40:00,
2013-03-17 17:45:00,34.4,8.9,30.09,NNW,327,4.0,9.0,34,0.00,,,0.00,Wunderground v.1.15,2013-03-17 21:45:00,
2013-03-17 17:51:00,34.4,8.2,30.09,NNW,338,4.0,4.0,33,0.00,,,0.00,Wunderground v.1.15,2013-03-17 21:51:00,
2013-03-17 17:57:00,34.2,8.7,30.09,WNW,287,3.0,11.0,34,0.00,,,0.00,Wunderground v.1.15,2013-03-17 21:57:00,
2013-03-17 18:05:00,33.9,8.4,30.10,NW,310,6.0,8.0,34,0.00,,,0.00,Wunderground v.1.15,2013-03-17 22:05:00,
2013-03-17 18:11:00,33.7,8.3,30.10,West,277,5.0,9.0,34,0.00,,,0.00,Wunderground v.1.15,2013-03-17 22:11:00,
2013-03-17 18:17:00,33.5,8.1,30.10,NNE,22,5.0,9.0,34,0.00,,,0.00,Wunderground v.1.15,2013-03-17 22:17:00,
2013-03-17 18:25:00,33.2,8.5,30.11,NNW,339,4.0,6.0,35,0.00,,,0.00,Wunderground v.1.15,2013-03-17 22:25:00,
2013-03-17 18:31:00,33.1,8.4,30.11,NNW,338,2.0,3.0,35,0.00,,,0.00,Wunderground v.1.15,2013-03-17 22:31:00,
2013-03-17 18:37:00,32.9,8.8,30.11,NW,326,2.0,3.0,36,0.00,,,0.00,Wunderground v.1.15,2013-03-17 22:37:00,
2013-03-17 18:42:00,32.7,8.0,30.12,North,5,3.0,3.0,35,0.00,,,0.00,Wunderground v.1.15,2013-03-17 22:42:00,
2013-03-17 18:50:00,32.5,8.5,30.13,NW,326,3.0,3.0,36,0.00,,,0.00,Wunderground v.1.15,2013-03-17 22:50:00,
2013-03-17 18:55:00,32.4,8.4,30.13,NNW,342,4.0,5.0,36,0.00,,,0.00,Wunderground v.1.15,2013-03-17 22:55:00,
2013-03-17 19:01:00,32.2,8.8,30.13,NW,326,3.0,3.0,37,0.00,,,0.00,Wunderground v.1.15,2013-03-17 23:01:00,
2013-03-17 19:07:00,31.9,8.5,30.13,NNW,331,3.0,3.0,37,0.00,,,0.00,Wunderground v.1.15,2013-03-17 23:07:00,
2013-03-17 19:14:00,31.7,8.4,30.14,NNW,327,3.0,5.0,37,0.00,,,0.00,Wunderground v.1.15,2013-03-17 23:14:00,
2013-03-17 19:19:00,31.6,8.3,30.15,North,355,2.0,2.0,37,0.00,,,0.00,Wunderground v.1.15,2013-03-17 23:19:00,
2013-03-17 19:25:00,31.4,8.7,30.15,NW,326,1.0,2.0,38,0.00,,,0.00,Wunderground v.1.15,2013-03-17 23:25:00,
2013-03-17 19:31:00,31.3,8.6,30.16,NNW,331,2.0,2.0,38,0.00,,,0.00,Wunderground v.1.15,2013-03-17 23:31:00,
2013-03-17 19:36:00,31.1,8.4,30.16,NNW,331,2.0,2.0,38,0.00,,,0.00,Wunderground v.1.15,2013-03-17 23:36:00,
2013-03-17 19:42:00,31.0,8.9,30.16,NNW,333,2.0,3.0,39,0.00,,,0.00,Wunderground v.1.15,2013-03-17 23:42:00,
2013-03-17 19:49:00,30.7,9.7,30.16,NW,315,1.0,4.0,41,0.00,,,0.00,Wunderground v.1.15,2013-03-17 23:49:00,
2013-03-17 19:55:00,30.4,8.4,30.17,NW,314,1.0,4.0,39,0.00,,,0.00,Wunderground v.1.15,2013-03-17 23:55:00,
2013-03-17 20:00:00,30.2,9.3,30.18,NW,315,1.0,1.0,41,0.00,,,0.00,Wunderground v.1.15,2013-03-18 00:00:00,
2013-03-17 20:06:00,29.9,10.1,30.18,NW,315,0.0,1.0,43,0.00,,,0.00,Wunderground v.1.15,2013-03-18 00:06:00,
2013-03-17 20:12:00,29.4,10.6,30.18,NW,315,1.0,1.0,45,0.00,,,0.00,Wunderground v.1.15,2013-03-18 00:12:00,
2013-03-17 20:19:00,28.9,10.7,30.18,NW,315,1.0,1.0,46,0.00,,,0.00,Wunderground v.1.15,2013-03-18 00:19:00,
2013-03-17 20:24:00,28.5,9.3,30.18,NW,315,0.0,1.0,44,0.00,,,0.00,Wunderground v.1.15,2013-03-18 00:24:00,
2013-03-17 20:29:00,28.2,9.0,30.19,NW,315,0.0,0.0,44,0.00,,,0.00,Wunderground v.1.15,2013-03-18 00:29:00,
2013-03-17 20:35:00,27.8,9.2,30.19,NW,315,0.0,0.0,45,0.00,,,0.00,Wunderground v.1.15,2013-03-18 00:35:00,
2013-03-17 20:41:00,27.5,10.4,30.19,NW,315,1.0,1.0,48,0.00,,,0.00,Wunderground v.1.15,2013-03-18 00:41:00,
2013-03-17 20:47:00,27.2,11.0,30.20,NW,315,1.0,1.0,50,0.00,,,0.00,Wunderground v.1.15,2013-03-18 00:47:00,
2013-03-17 20:54:00,26.8,11.9,30.20,NW,315,1.0,2.0,53,0.00,,,0.00,Wunderground v.1.15,2013-03-18 00:54:00,
2013-03-17 21:00:00,26.6,10.4,30.20,NW,315,1.0,1.0,50,0.00,,,0.00,Wunderground v.1.15,2013-03-18 01:00:00,
2013-03-17 21:06:00,26.3,10.6,30.20,NW,315,1.0,1.0,51,0.00,,,0.00,Wunderground v.1.15,2013-03-18 01:06:00,
2013-03-17 21:11:00,26.2,12.2,30.20,NW,321,1.0,3.0,55,0.00,,,0.00,Wunderground v.1.15,2013-03-18 01:11:00,
2013-03-17 21:16:00,26.0,12.8,30.21,NW,313,2.0,3.0,57,0.00,,,0.00,Wunderground v.1.15,2013-03-18 01:16:00,
2013-03-17 21:22:00,25.9,12.3,30.21,NW,323,1.0,2.0,56,0.00,,,0.00,Wunderground v.1.15,2013-03-18 01:22:00,
2013-03-17 21:29:00,26.0,11.2,30.22,NW,323,0.0,1.0,53,0.00,,,0.00,Wunderground v.1.15,2013-03-18 01:29:00,
2013-03-17 21:35:00,26.0,12.8,30.22,NW,323,0.0,1.0,57,0.00,,,0.00,Wunderground v.1.15,2013-03-18 01:35:00,
2013-03-17 21:40:00,25.9,13.1,30.23,NW,323,0.0,2.0,58,0.00,,,0.00,Wunderground v.1.15,2013-03-18 01:40:00,
2013-03-17 21:45:00,25.9,12.7,30.23,NW,323,1.0,2.0,57,0.00,,,0.00,Wunderground v.1.15,2013-03-18 01:45:00,
2013-03-17 21:51:00,25.9,13.1,30.23,NW,323,1.0,2.0,58,0.00,,,0.00,Wunderground v.1.15,2013-03-18 01:51:00,
2013-03-17 21:56:00,25.9,13.1,30.24,NW,323,1.0,2.0,58,0.00,,,0.00,Wunderground v.1.15,2013-03-18 01:56:00,
2013-03-17 22:02:00,25.8,11.8,30.24,NW,323,1.0,2.0,55,0.00,,,0.00,Wunderground v.1.15,2013-03-18 02:02:00,
2013-03-17 22:07:00,25.9,10.7,30.24,NW,323,1.0,2.0,52,0.00,,,0.00,Wunderground v.1.15,2013-03-18 02:07:00,
2013-03-17 22:12:00,25.8,11.0,30.25,North,355,1.0,1.0,53,0.00,,,0.00,Wunderground v.1.15,2013-03-18 02:12:00,
2013-03-17 22:19:00,26.0,9.9,30.25,North,355,1.0,2.0,50,0.00,,,0.00,Wunderground v.1.15,2013-03-18 02:19:00,
2013-03-17 22:25:00,26.2,10.5,30.26,North,355,1.0,2.0,51,0.00,,,0.00,Wunderground v.1.15,2013-03-18 02:25:00,
2013-03-17 22:30:00,26.2,10.5,30.26,North,355,1.0,1.0,51,0.00,,,0.00,Wunderground v.1.15,2013-03-18 02:30:00,
2013-03-17 22:35:00,26.2,10.1,30.26,North,355,0.0,1.0,50,0.00,,,0.00,Wunderground v.1.15,2013-03-18 02:35:00,
2013-03-17 22:41:00,26.1,10.0,30.27,North,355,1.0,1.0,50,0.00,,,0.00,Wunderground v.1.15,2013-03-18 02:41:00,
2013-03-17 22:47:00,26.0,9.4,30.27,North,355,1.0,1.0,49,0.00,,,0.00,Wunderground v.1.15,2013-03-18 02:47:00,
2013-03-17 22:54:00,26.0,9.4,30.27,North,355,1.0,1.0,49,0.00,,,0.00,Wunderground v.1.15,2013-03-18 02:54:00,
2013-03-17 23:00:00,26.0,9.4,30.27,North,355,1.0,1.0,49,0.00,,,0.00,Wunderground v.1.15,2013-03-18 03:00:00,
2013-03-17 23:05:00,26.1,9.5,30.28,NNW,346,1.0,2.0,49,0.00,,,0.00,Wunderground v.1.15,2013-03-18 03:05:00,
2013-03-17 23:11:00,26.1,9.1,30.28,NE,45,2.0,2.0,48,0.00,,,0.00,Wunderground v.1.15,2013-03-18 03:11:00,
2013-03-17 23:16:00,26.0,9.0,30.28,NNE,13,2.0,2.0,48,0.00,,,0.00,Wunderground v.1.15,2013-03-18 03:16:00,
2013-03-17 23:21:00,26.0,8.5,30.28,NNE,15,2.0,3.0,47,0.00,,,0.00,Wunderground v.1.15,2013-03-18 03:21:00,
2013-03-17 23:27:00,26.2,8.2,30.28,North,10,2.0,4.0,46,0.00,,,0.00,Wunderground v.1.15,2013-03-18 03:27:00,
2013-03-17 23:32:00,26.3,8.3,30.29,NNE,32,3.0,3.0,46,0.00,,,0.00,Wunderground v.1.15,2013-03-18 03:32:00,
2013-03-17 23:37:00,26.3,8.3,30.29,NNE,32,2.0,3.0,46,0.00,,,0.00,Wunderground v.1.15,2013-03-18 03:37:00,
2013-03-17 23:44:00,26.1,8.6,30.29,NNE,29,1.0,2.0,47,0.00,,,0.00,Wunderground v.1.15,2013-03-18 03:44:00,
2013-03-17 23:50:00,25.8,7.8,30.29,North,360,2.0,3.0,46,0.00,,,0.00,Wunderground v.1.15,2013-03-18 03:50:00,
2013-03-17 23:55:00,25.8,7.8,30.29,NNE,22,3.0,3.0,46,0.00,,,0.00,Wunderground v.1.15,2013-03-18 03:55:00,